Date,TemperatureHighF,TemperatureAvgF,TemperatureLowF,DewpointHighF,DewpointAvgF,DewpointLowF,HumidityHigh,HumidityAvg,HumidityLow,PressureMaxIn,PressureMinIn,WindSpeedMaxMPH,WindSpeedAvgMPH,GustSpeedMaxMPH,PrecipitationSumIn
2013-5-1,56,47,35,47,38,31,97,75,39,30.46,30.37,14,5,19,0.00
2013-5-2,57,48,38,49,40,33,97,78,42,30.51,30.41,9,2,16,0.00
2013-5-3,60,47,38,47,42,37,94,82,58,30.55,30.38,13,4,16,0.00
2013-5-4,54,45,37,46,40,36,98,84,63,30.39,30.32,13,4,16,0.00
2013-5-5,51,45,34,44,40,34,97,84,66,30.34,30.25,18,6,21,0.00
2013-5-6,53,46,37,49,44,36,98,92,78,30.28,30.18,15,6,18,0.00
2013-5-7,57,49,44,52,48,44,98,95,80,30.18,30.10,16,7,18,0.01
2013-5-8,64,54,43,60,52,43,99,95,82,30.25,30.13,12,4,16,0.00
2013-5-9,55,53,50,54,52,50,99,97,95,30.12,29.90,6,2,10,0.30
2013-5-10,56,52,50,55,52,49,99,97,93,29.96,29.88,12,3,14,0.00
2013-5-11,56,53,49,55,52,49,98,97,94,29.94,29.69,17,8,24,0.27
2013-5-12,58,54,50,57,53,46,99,97,84,29.70,29.52,11,4,16,0.16
2013-5-13,54,49,44,45,40,33,93,72,48,29.98,29.70,26,7,33,0.00
2013-5-14,58,49,43,42,36,32,84,62,39,30.00,29.93,7,2,12,0.00
2013-5-15,59,49,38,49,41,31,95,76,35,30.00,29.66,18,7,23,0.29
2013-5-16,67,56,49,55,50,44,98,81,51,29.76,29.55,15,5,22,0.00
2013-5-17,62,56,44,47,42,37,90,63,40,30.18,29.76,11,3,15,0.00
2013-5-18,58,49,39,46,43,38,96,81,55,30.34,30.19,12,4,15,0.00
2013-5-19,56,50,44,49,46,42,97,87,73,30.37,30.25,11,3,14,0.06
2013-5-20,64,55,50,60,54,49,98,95,88,30.23,29.91,14,3,16,0.82
2013-5-21,53,49,48,52,48,47,98,97,95,30.06,29.94,9,2,14,0.50
2013-5-22,53,50,48,51,49,47,98,96,92,30.10,29.91,7,2,11,0.64
2013-5-23,57,53,48,57,52,47,99,98,95,29.95,29.82,16,5,21,0.01
2013-5-24,59,56,51,59,55,50,99,98,94,29.82,29.64,20,8,25,1.57
2013-5-25,52,50,48,51,49,48,98,96,92,29.81,29.65,14,6,24,0.24
2013-5-26,55,50,46,50,47,42,98,91,71,29.93,29.58,6,2,15,0.35
2013-5-27,67,55,43,44,39,33,88,59,30,30.14,29.93,8,2,13,0.00
2013-5-28,63,52,38,49,44,37,96,76,51,30.22,30.15,16,5,20,0.00
2013-5-29,55,51,46,54,51,45,99,97,93,30.21,29.99,7,2,16,0.13
2013-5-30,71,60,51,67,57,51,99,91,73,30.01,29.95,10,2,13,0.01
2013-5-31,72,65,54,64,60,53,98,84,70,30.03,29.86,12,3,15,0.00